Emporia, Virginia, United States (23847)
Lat: 36.69N, Lon: 77.54W
Wx Zone: VAZ087
Local Info
Past Weather Observations for Wednesday, July 1, 2015

NOTE: This archive is for the closest National Weather Service station to Emporia. Information may differ from the station used for current weather conditions.

Click here for Long-term Archive

Time Weather Temperature Dewpoint Humidity Pressure Winds Precip Visibility
22:55
Fair
73°F / 23°C 70°F / 21°C 89% 29.95 in
(1014 mb)
Calm - 10SM
22:35
Fair
73°F / 23°C 70°F / 21°C 89% 29.95 in
(1014 mb)
Calm - 7SM
22:15
Fog And Mist
73°F / 23°C 70°F / 21°C 89% 29.95 in
(1014 mb)
Calm - 5SM
21:55
Fair
75°F / 24°C 70°F / 21°C 83% 29.95 in
(1014 mb)
Calm - 10SM
21:35
Fair
75°F / 24°C 70°F / 21°C 83% 29.95 in
(1014 mb)
Calm - 10SM
21:15
Hazy
75°F / 24°C 70°F / 21°C 83% 29.95 in
(1014 mb)
Calm - 3SM
20:55
Fair
75°F / 24°C 70°F / 21°C 83% 29.95 in
(1014 mb)
Calm - 10SM
20:35
Fair
75°F / 24°C 72°F / 22°C 89% 29.95 in
(1014 mb)
Calm - 10SM
20:15
Fair
77°F / 25°C 72°F / 22°C 83% 29.95 in
(1014 mb)
SE 3.5 mph
(SE 6 kph)
- 10SM
19:55
Fair
75°F / 24°C 72°F / 22°C 89% 29.92 in
(1013 mb)
Calm - 10SM
19:35
Fair
75°F / 24°C 72°F / 22°C 89% 29.92 in
(1013 mb)
Calm - 10SM
19:15
Fair
75°F / 24°C 72°F / 22°C 89% 29.92 in
(1013 mb)
Calm - 10SM
18:55
Fair
79°F / 26°C 70°F / 21°C 74% 29.92 in
(1013 mb)
Calm - 10SM
18:35
Fair
81°F / 27°C 70°F / 21°C 70% 29.92 in
(1013 mb)
Calm - 10SM
18:15
Fair
81°F / 27°C 70°F / 21°C 70% 29.92 in
(1013 mb)
Calm - 10SM
17:55
Fair
81°F / 27°C 70°F / 21°C 70% 29.92 in
(1013 mb)
Calm -
17:35
Fair
82°F / 28°C 70°F / 21°C 66% 29.92 in
(1013 mb)
S 3.5 mph
(S 6 kph)
- 10SM
17:15
Fair
82°F / 28°C 68°F / 20°C 62% 29.92 in
(1013 mb)
S 3.5 mph
(S 6 kph)
- 10SM
16:55
Fair
82°F / 28°C 68°F / 20°C 62% 29.92 in
(1013 mb)
S 3.5 mph
(S 6 kph)
-
16:35
Fair
82°F / 28°C 68°F / 20°C 62% 29.92 in
(1013 mb)
SSE 5.8 mph
(SSE 9 kph)
- 10SM
16:15
Fair
82°F / 28°C 68°F / 20°C 62% 29.92 in
(1013 mb)
SSE 4.6 mph
(SSE 7 kph)
- 10SM
15:55
Fair
84°F / 29°C 68°F / 20°C 58% 29.92 in
(1013 mb)
SSE 5.8 mph
(SSE 9 kph)
- 10SM
15:35
Fair
82°F / 28°C 66°F / 19°C 58% 29.92 in
(1013 mb)
S 4.6 mph
(S 7 kph)
- 10SM
15:15
Fair
82°F / 28°C 66°F / 19°C 58% 29.92 in
(1013 mb)
S 6.9 mph
(S 11 kph)
- 10SM
14:55
Fair
82°F / 28°C 64°F / 18°C 55% 29.95 in
(1014 mb)
SSE 5.8 mph
(SSE 9 kph)
- 10SM
14:35
Fair
82°F / 28°C 68°F / 20°C 62% 29.95 in
(1014 mb)
S 6.9 mph
(S 11 kph)
- 10SM
14:15
Fair
82°F / 28°C 66°F / 19°C 58% 29.92 in
(1013 mb)
S 5.8 mph
(S 9 kph)
- 10SM
13:55
Fair
82°F / 28°C 66°F / 19°C 58% 29.92 in
(1013 mb)
Calm - 10SM
13:35
Fair
82°F / 28°C 68°F / 20°C 62% 29.95 in
(1014 mb)
SW 4.6 mph
(SW 7 kph)
- 10SM
13:15
Fair
82°F / 28°C 68°F / 20°C 62% 29.95 in
(1014 mb)
SW 4.6 mph
(SW 7 kph)
-
12:55
Fair
82°F / 28°C 64°F / 18°C 55% 29.95 in
(1014 mb)
SSE 3.5 mph
(SSE 6 kph)
-
12:35
Fair
82°F / 28°C 66°F / 19°C 58% 29.95 in
(1014 mb)
SW 5.8 mph
(SW 9 kph)
- 10SM
12:15
Fair
81°F / 27°C 64°F / 18°C 58% 29.95 in
(1014 mb)
SW 5.8 mph
(SW 9 kph)
- 10SM
11:55
Fair
81°F / 27°C 68°F / 20°C 66% 29.98 in
(1015 mb)
S 4.6 mph
(S 7 kph)
- 10SM
11:35
Fair
81°F / 27°C 66°F / 19°C 62% 29.98 in
(1015 mb)
SSW 5.8 mph
(SSW 9 kph)
- 10SM
11:15
Fair
79°F / 26°C 66°F / 19°C 65% 29.98 in
(1015 mb)
SSW 5.8 mph
(SSW 9 kph)
- 10SM
10:55
Fair
79°F / 26°C 66°F / 19°C 65% 29.98 in
(1015 mb)
SSW 3.5 mph
(SSW 6 kph)
-
10:35
Fair
79°F / 26°C 68°F / 20°C 70% 29.98 in
(1015 mb)
SW 4.6 mph
(SW 7 kph)
- 10SM
10:15
Fair
79°F / 26°C 68°F / 20°C 70% 29.95 in
(1014 mb)
SW 5.8 mph
(SW 9 kph)
- 10SM
09:55
Fair
77°F / 25°C 66°F / 19°C 69% 29.95 in
(1014 mb)
SW 4.6 mph
(SW 7 kph)
- 10SM
09:35
Fair
77°F / 25°C 68°F / 20°C 74% 29.95 in
(1014 mb)
SSW 3.5 mph
(SSW 6 kph)
- 10SM
09:15
Fair
75°F / 24°C 68°F / 20°C 78% 29.95 in
(1014 mb)
SSW 3.5 mph
(SSW 6 kph)
-
08:55
Fair
73°F / 23°C 68°F / 20°C 83% 29.95 in
(1014 mb)
SSE 6.9 mph
(SSE 11 kph)
- 10SM
08:35
Fair
72°F / 22°C 68°F / 20°C 88% 29.95 in
(1014 mb)
SW 4.6 mph
(SW 7 kph)
- 10SM
08:15
Fair
72°F / 22°C 68°F / 20°C 88% 29.95 in
(1014 mb)
SW 6.9 mph
(SW 11 kph)
- 10SM
07:55
Fair
70°F / 21°C 68°F / 20°C 94% 29.95 in
(1014 mb)
SW 3.5 mph
(SW 6 kph)
- 10SM
07:35
Fair
70°F / 21°C 68°F / 20°C 94% 29.95 in
(1014 mb)
SW 3.5 mph
(SW 6 kph)
- 7SM
07:15
Fair
68°F / 20°C 68°F / 20°C 100% 29.95 in
(1014 mb)
SSE 5.8 mph
(SSE 9 kph)
- 7SM
06:55
Fog And Mist
68°F / 20°C 68°F / 20°C 100% 29.95 in
(1014 mb)
S 4.6 mph
(S 7 kph)
- 5SM
06:35
Fog And Mist
68°F / 20°C 66°F / 19°C 94% 29.95 in
(1014 mb)
SSE 3.5 mph
(SSE 6 kph)
- 5SM
06:15
Fog And Mist
66°F / 19°C 66°F / 19°C 100% 29.95 in
(1014 mb)
S 3.5 mph
(S 6 kph)
- 5SM
05:55
Fog And Mist
66°F / 19°C 66°F / 19°C 100% 29.92 in
(1013 mb)
Calm - 4SM
05:35
Fog And Mist
66°F / 19°C 66°F / 19°C 100% 29.92 in
(1013 mb)
Calm - 5SM
05:15
Fair
66°F / 19°C 66°F / 19°C 100% 29.92 in
(1013 mb)
Calm - 7SM
04:55
Fair
66°F / 19°C 66°F / 19°C 100% 29.92 in
(1013 mb)
Calm - 7SM
04:35
Fair
66°F / 19°C 66°F / 19°C 100% 29.92 in
(1013 mb)
Calm - 7SM
04:15
Fair
66°F / 19°C 66°F / 19°C 100% 29.92 in
(1013 mb)
SE 3.5 mph
(SE 6 kph)
- 7SM
03:55
Fair
66°F / 19°C 66°F / 19°C 100% 29.92 in
(1013 mb)
Calm - 7SM
03:35
Fair
68°F / 20°C 66°F / 19°C 94% 29.92 in
(1013 mb)
SSE 3.5 mph
(SSE 6 kph)
- 7SM
03:15
Fair
68°F / 20°C 66°F / 19°C 94% 29.92 in
(1013 mb)
Calm - 10SM
02:55
Fair
68°F / 20°C 66°F / 19°C 94% 29.92 in
(1013 mb)
SSE 3.5 mph
(SSE 6 kph)
- 10SM
02:35
Fair
68°F / 20°C 66°F / 19°C 94% 29.92 in
(1013 mb)
S 3.5 mph
(S 6 kph)
- 10SM
02:15
Fair
68°F / 20°C 66°F / 19°C 94% 29.92 in
(1013 mb)
Calm - 10SM
01:55
Fair
68°F / 20°C 66°F / 19°C 94% 29.92 in
(1013 mb)
Calm - 10SM
01:35
Fair
68°F / 20°C 66°F / 19°C 94% 29.89 in
(1012 mb)
SSE 3.5 mph
(SSE 6 kph)
- 10SM
01:15
Fair
68°F / 20°C 66°F / 19°C 94% 29.92 in
(1013 mb)
SSE 3.5 mph
(SSE 6 kph)
- 10SM
00:55
Fair
68°F / 20°C 66°F / 19°C 94% 29.92 in
(1013 mb)
S 4.6 mph
(S 7 kph)
- 10SM
00:35
Clear
68°F / 20°C 68°F / 20°C 100% 29.89 in
(1012 mb)
S 3.5 mph
(S 6 kph)
- 10SM
00:15
Clear
68°F / 20°C 68°F / 20°C 100% 29.89 in
(1012 mb)
SSE 5.8 mph
(SSE 9 kph)
- 10SM
Time Weather Temperature Dewpoint Humidity Pressure Winds Precip Visibility


Weather for websites

WeatherForYou.com, LLC is not responsible for any damages or problems caused by this service. Current weather conditions are obtained from the closest station including government and personal stations which may have varying degrees of accuracy. Weather forecasts are derived from the NOAA NDFD. Like all things, this site belongs to Jesus Christ... He just trusts us to maintain it. If you have any questions or comments email webmaster@weatherforyou.com

Copyright © 2015, WeatherForYou.com LLC. All rights reserved.